Wind_Speed
15 14 13 12 10 9 7 6 5 4 3 2 1 1 2 3 4 4 5 5 6 6 5 5 5 5 4 4 4 3 3 2 2 2 2 3 3 4 4 5 6 6 7
16 15 14 13 11 10 9 8 7 5 4 3 2 1 0 1 2 3 3 4 4 4 4 3 3 4 3 3 3 3 3 3 3 3 3 4 5 5 5 6 6 7 8
16 16 15 14 12 11 10 9 8 7 6 5 3 2 2 1 2 2 3 3 3 3 3 2 2 2 3 2 2 3 3 4 5 4 5 6 7 7 8 8 8 9 10
17 16 16 15 14 12 11 10 9 8 7 7 6 5 4 3 3 3 3 3 3 4 3 3 3 3 3 3 4 4 5 5 6 6 7 8 9 10 10 10 11 11 12
18 18 17 16 15 14 12 11 11 10 9 8 8 7 6 5 5 5 5 5 5 5 5 5 5 5 5 5 5 6 6 7 8 9 9 10 11 11 12 12 13 13 14
19 19 18 17 16 15 13 12 12 11 10 10 9 9 8 8 8 7 7 7 6 6 6 6 6 7 7 8 8 8 9 10 10 11 11 12 13 13 14 14 15 15 16
19 19 19 18 17 16 15 14 14 13 12 11 11 11 11 10 10 10 9 9 9 8 8 8 9 9 10 10 10 10 11 12 13 13 14 15 15 16 16 17 17 18 19
19 19 18 19 18 17 16 16 15 14 14 13 12 12 12 12 12 11 11 11 11 11 11 11 11 11 12 12 12 13 14 14 15 16 16 17 17 18 19 19 20 20 21
18 18 18 19 19 18 18 17 16 16 15 15 14 14 13 13 13 13 13 13 13 13 13 13 13 14 14 14 15 15 16 16 17 18 19 19 20 21 21 22 23 24 24
19 19 18 18 18 18 17 17 17 17 16 16 16 16 16 15 15 15 16 15 16 16 16 16 16 17 17 17 17 18 18 19 19 20 21 22 23 23 24 25 26 27 28
19 19 18 18 18 18 18 18 18 18 18 18 18 18 18 18 17 17 17 17 17 18 18 19 19 19 20 20 21 21 21 22 22 23 24 25 26 27 27 28 29 30 31
20 20 19 19 19 19 19 18 18 18 18 18 18 18 18 19 19 19 19 20 20 20 21 21 22 22 23 23 23 24 24 25 26 26 27 28 29 29 30 31 32 33 34
20 20 20 20 20 20 20 20 20 20 20 20 20 20 20 20 20 21 22 22 23 23 23 24 24 25 26 26 26 27 27 28 29 30 30 31 32 33 34 34 35 36 37
20 20 20 20 20 21 21 21 20 21 21 21 21 22 22 22 22 22 23 23 24 25 25 26 27 27 28 28 29 29 30 31 32 33 33 34 35 36 36 37 38 39 40
20 20 20 20 20 20 20 21 21 21 22 22 23 23 23 24 24 24 24 24 25 26 27 28 28 29 30 30 31 32 33 34 35 36 37 38 38 39 39 40 41 42 44
21 21 22 22 22 22 22 22 23 23 24 24 25 25 25 26 26 26 26 27 27 28 29 29 30 31 32 33 34 35 36 37 37 38 39 40 41 41 42 43 44 45 47
22 23 23 24 24 24 24 24 25 25 25 26 27 27 27 28 28 29 29 30 30 31 31 32 33 34 35 36 36 37 38 39 40 41 42 43 43 44 45 46 47 48 49
23 24 25 25 25 26 26 26 27 27 28 28 28 29 29 30 30 31 32 32 32 33 34 34 35 36 37 38 38 39 40 41 42 43 44 45 46 47 48 49 50 51 52
24 24 25 26 27 27 28 28 29 29 30 30 31 32 32 33 33 33 34 35 35 36 37 37 38 39 39 40 41 42 43 44 45 46 47 48 49 50 51 52 53 54 55
25 26 27 28 29 30 31 31 32 32 32 33 34 34 35 35 36 36 37 38 39 39 40 40 41 42 42 43 44 45 45 46 47 48 49 50 51 53 54 55 56 57 57
27 28 28 29 30 31 32 33 33 34 35 35 36 37 37 38 38 39 40 41 41 42 42 43 44 45 45 46 47 48 48 49 50 51 52 53 54 55 56 57 57 58 59
28 29 29 30 31 32 33 33 34 35 36 37 38 38 39 40 41 41 42 43 44 44 45 45 46 47 48 49 49 50 51 53 54 55 56 56 57 57 58 58 59 59 60
29 30 30 31 32 33 34 35 36 37 37 39 40 40 41 42 42 43 44 45 45 47 48 48 49 49 50 51 52 53 54 56 57 58 59 60 60 60 60 60 60 61 61
31 31 32 33 34 35 36 37 38 39 40 40 41 42 43 43 44 45 46 47 48 49 50 51 51 52 53 54 55 56 57 58 59 60 61 62 62 62 62 63 62 62 61
32 33 34 35 36 37 38 39 40 41 42 43 43 44 45 45 46 47 48 49 50 51 52 53 54 54 55 57 58 59 59 60 61 62 62 62 62 62 63 62 62 61 60
34 35 36 36 37 38 39 40 41 42 43 44 45 46 47 47 48 50 51 52 53 54 55 56 56 57 58 59 60 60 60 61 62 62 62 62 62 63 62 62 61 60 59
Wind_Direction
206 207 207 206 206 207 209 209 202 191 182 165 134 89 73 59 52 50 49 48 52 58 61 61 60 60 69 71 67 56 49 34 9 358 343 329 313 307 308 303 292 285 284
210 210 210 210 209 211 213 215 211 206 200 197 201 196 67 30 30 31 30 31 38 45 47 47 47 44 48 46 41 35 28 15 1 351 347 334 321 312 310 302 295 286 286
213 214 213 212 212 214 216 217 218 216 214 217 226 244 266 296 320 337 351 3 6 10 9 6 7 7 10 7 4 1 351 344 341 332 328 324 321 315 313 306 301 295 290
215 216 216 215 216 218 219 222 224 224 225 228 235 248 256 270 288 299 308 320 330 332 327 320 318 321 326 327 324 326 327 327 326 321 321 320 317 315 312 308 304 303 300
218 219 218 218 219 219 221 224 228 230 233 235 238 245 252 263 275 282 287 294 302 308 307 302 298 299 300 302 303 305 308 309 311 311 310 311 311 311 311 307 304 303 300
221 221 220 220 221 223 225 228 231 233 237 240 244 250 256 263 269 274 278 281 286 292 294 294 292 291 291 294 294 296 299 301 302 303 303 303 305 305 306 305 303 302 300
221 222 223 223 224 226 229 232 235 237 242 245 248 253 258 264 268 271 272 273 278 282 284 286 288 289 289 291 291 292 295 298 299 300 301 301 300 302 303 303 303 303 302
222 224 225 225 227 228 232 236 238 240 244 248 251 254 258 262 266 270 271 272 275 278 281 283 286 289 291 291 289 290 293 295 298 299 300 299 298 299 301 302 302 302 302
225 227 228 228 228 229 234 238 240 243 246 250 253 256 259 262 265 268 270 271 274 277 279 282 285 288 290 291 291 292 293 293 295 298 298 298 298 298 299 300 300 300 300
228 230 231 232 232 233 237 239 243 247 250 252 254 256 259 263 266 269 270 272 273 276 278 280 283 285 286 287 289 291 292 293 293 295 296 296 296 296 297 298 299 299 299
230 233 236 236 236 239 241 244 247 250 253 256 257 258 261 264 267 269 271 273 275 276 277 278 280 283 285 286 287 289 290 292 292 294 295 296 296 296 297 297 297 298 298
232 234 237 238 241 244 247 249 251 253 255 257 260 261 263 266 269 271 273 275 277 278 279 279 280 282 283 284 286 287 289 291 292 293 294 296 296 297 297 297 297 298 299
234 235 238 241 244 247 250 253 253 254 256 257 260 263 265 268 270 272 273 275 277 279 280 280 281 282 283 284 286 287 288 290 291 293 294 295 296 297 297 297 297 298 298
237 239 241 244 247 248 251 254 256 256 258 259 262 265 267 269 271 272 275 277 278 279 280 281 281 282 283 284 285 287 288 289 291 292 293 295 296 296 297 297 297 298 298
241 242 244 246 248 250 252 255 257 258 259 261 263 266 268 271 273 275 277 279 280 281 282 283 284 284 284 285 286 287 289 290 291 292 293 294 295 296 296 296 297 297 298
245 246 247 248 250 253 255 257 259 260 261 263 265 268 270 272 274 275 277 279 281 283 284 284 285 286 286 286 287 288 289 290 291 292 293 294 295 295 296 297 297 297 298
249 249 250 252 254 255 257 259 260 262 264 266 268 270 271 273 274 276 278 280 281 282 283 284 285 286 286 286 287 288 289 290 291 292 293 294 294 295 296 296 297 297 297
251 252 252 254 255 257 259 261 263 265 267 268 269 270 272 273 275 276 278 280 281 282 283 284 286 286 287 287 288 288 289 290 291 292 293 293 294 294 295 296 296 296 297
255 256 255 256 258 260 261 263 265 267 268 269 271 272 273 274 275 277 278 279 280 281 283 284 285 286 287 288 288 289 290 290 291 291 292 293 293 294 294 295 295 296 296
259 259 260 260 260 262 264 265 267 268 270 271 272 274 275 276 277 278 279 281 282 282 283 283 284 285 286 287 288 289 290 290 291 291 292 292 293 293 294 294 295 295 296
263 264 265 266 265 266 266 267 269 270 271 273 274 275 276 277 278 280 281 282 283 283 284 284 285 285 286 287 288 289 289 290 291 291 292 292 292 293 294 294 295 295 295
269 269 270 270 270 270 270 270 271 272 273 274 275 275 276 277 279 280 281 282 283 284 285 286 286 286 287 287 288 289 289 290 291 292 292 293 293 293 293 294 295 295 295
270 271 272 272 273 273 273 273 274 274 275 275 276 276 277 278 279 281 282 283 284 284 285 285 286 286 287 288 289 289 290 290 291 291 292 293 293 293 294 294 295 295 295
271 272 273 273 274 275 275 275 275 275 276 276 277 277 278 279 280 281 282 283 284 284 285 285 285 286 287 288 288 289 289 290 291 291 291 292 292 293 293 294 294 294 294
272 273 274 275 276 277 277 277 277 277 277 278 278 279 280 280 281 282 282 283 284 284 285 285 286 286 287 288 289 289 290 290 291 291 291 292 292 293 293 293 293 293 293
274 275 276 277 278 279 279 279 278 278 279 279 280 280 281 281 282 282 283 283 284 285 285 286 286 286 287 288 288 289 290 290 291 291 292 292 292 292 292 293 293 293 293
Height
5879 5881 5882 5884 5885 5886 5887 5887 5888 5888 5888 5888 5888 5888 5888 5887 5887 5886 5885 5884 5883 5882 5882 5881 5880 5880 5879 5879 5878 5878 5877 5877 5876 5875 5874 5873 5872 5871 5870 5869 5868 5868 5868
5877 5879 5881 5882 5884 5885 5886 5887 5887 5887 5888 5888 5888 5888 5888 5888 5887 5886 5886 5885 5884 5883 5882 5881 5881 5880 5879 5879 5879 5878 5877 5877 5876 5875 5874 5873 5872 5870 5869 5868 5867 5867 5867
5875 5877 5879 5881 5882 5884 5885 5885 5886 5887 5887 5887 5888 5888 5888 5887 5887 5886 5885 5885 5884 5883 5882 5881 5881 5880 5879 5879 5878 5878 5877 5876 5875 5874 5873 5872 5871 5869 5868 5867 5866 5865 5864
5872 5874 5877 5878 5880 5882 5883 5884 5885 5885 5886 5886 5887 5887 5887 5886 5886 5886 5885 5884 5883 5882 5881 5880 5880 5879 5879 5878 5878 5877 5876 5876 5875 5874 5872 5871 5870 5868 5866 5865 5864 5863 5862
5869 5872 5874 5876 5878 5879 5881 5882 5883 5884 5884 5885 5885 5885 5885 5885 5885 5884 5884 5883 5882 5881 5880 5879 5878 5878 5877 5877 5877 5876 5875 5874 5873 5872 5871 5870 5868 5866 5865 5863 5862 5861 5859
5866 5869 5871 5873 5875 5877 5879 5880 5881 5882 5882 5883 5883 5884 5884 5884 5883 5883 5882 5881 5880 5879 5878 5877 5877 5876 5876 5875 5875 5874 5874 5873 5871 5870 5869 5867 5866 5864 5862 5860 5859 5857 5856
5863 5866 5868 5870 5872 5874 5876 5877 5878 5879 5880 5880 5881 5881 5881 5881 5881 5881 5880 5879 5878 5878 5877 5876 5875 5875 5874 5874 5873 5872 5871 5870 5869 5868 5866 5864 5863 5861 5859 5857 5855 5853 5851
5859 5862 5864 5867 5869 5871 5872 5873 5875 5876 5877 5877 5878 5878 5878 5878 5878 5878 5877 5877 5876 5875 5875 5874 5873 5872 5872 5871 5870 5869 5868 5867 5866 5864 5862 5861 5859 5857 5855 5853 5851 5848 5846
5856 5858 5861 5863 5865 5867 5869 5870 5871 5872 5873 5874 5874 5875 5875 5875 5875 5874 5874 5873 5873 5872 5872 5871 5870 5869 5868 5867 5867 5866 5865 5863 5862 5860 5858 5856 5854 5852 5850 5848 5846 5843 5841
5853 5855 5857 5859 5861 5863 5865 5866 5867 5868 5869 5870 5870 5871 5871 5871 5871 5871 5870 5870 5869 5869 5868 5867 5866 5865 5864 5863 5862 5861 5860 5859 5857 5855 5853 5851 5849 5847 5845 5843 5840 5837 5834
5849 5851 5853 5855 5857 5859 5860 5862 5863 5864 5864 5865 5866 5866 5866 5867 5867 5866 5866 5865 5865 5864 5863 5863 5862 5861 5860 5859 5857 5856 5855 5853 5851 5850 5848 5846 5843 5841 5838 5836 5833 5830 5827
5845 5847 5849 5851 5853 5854 5856 5857 5858 5859 5860 5860 5861 5861 5862 5862 5862 5861 5861 5860 5860 5859 5858 5857 5856 5855 5854 5853 5852 5850 5849 5847 5845 5843 5841 5839 5836 5834 5831 5828 5825 5822 5818
5840 5843 5845 5846 5848 5849 5851 5852 5853 5854 5855 5855 5856 5856 5856 5856 5856 5856 5855 5855 5854 5853 5852 5851 5850 5849 5848 5847 5845 5844 5842 5840 5838 5836 5834 5831 5828 5825 5822 5819 5816 5812 5809
5836 5838 5840 5841 5843 5844 5846 5847 5847 5848 5849 5850 5850 5850 5851 5850 5850 5850 5849 5848 5847 5846 5845 5844 5843 5842 5841 5839 5838 5836 5834 5832 5830 5827 5825 5822 5819 5816 5813 5809 5806 5802 5798
5831 5833 5835 5836 5838 5839 5840 5841 5842 5843 5843 5844 5844 5844 5844 5844 5844 5843 5842 5842 5841 5840 5838 5837 5835 5834 5832 5831 5829 5827 5825 5823 5820 5818 5815 5812 5809 5806 5802 5798 5795 5791 5786
5826 5827 5829 5830 5832 5833 5834 5835 5836 5836 5837 5837 5838 5838 5838 5837 5837 5836 5835 5834 5833 5832 5830 5829 5827 5825 5824 5822 5820 5818 5816 5813 5810 5807 5804 5801 5798 5794 5791 5787 5783 5778 5774
5820 5821 5823 5824 5825 5826 5827 5828 5829 5829 5830 5830 5830 5830 5830 5830 5829 5828 5827 5826 5824 5823 5821 5820 5818 5816 5814 5812 5810 5808 5805 5802 5799 5796 5793 5789 5786 5782 5778 5774 5770 5765 5760
5814 5815 5816 5817 5818 5819 5820 5820 5821 5821 5822 5822 5822 5822 5821 5821 5820 5819 5818 5817 5815 5813 5812 5810 5808 5806 5803 5801 5799 5796 5793 5790 5787 5784 5781 5777 5773 5769 5765 5760 5756 5751 5746
5807 5808 5809 5810 5811 5811 5812 5812 5813 5813 5813 5813 5813 5812 5812 5811 5810 5809 5808 5806 5805 5803 5801 5799 5797 5795 5792 5789 5787 5784 5781 5778 5774 5771 5767 5763 5759 5755 5751 5746 5741 5736 5730
5800 5800 5801 5802 5802 5803 5803 5804 5804 5804 5804 5803 5803 5802 5801 5800 5799 5798 5797 5795 5794 5792 5790 5788 5785 5782 5780 5777 5774 5771 5768 5764 5761 5757 5753 5749 5744 5740 5735 5730 5725 5720 5714
5792 5792 5792 5793 5793 5794 5794 5794 5794 5794 5793 5792 5792 5791 5790 5789 5788 5786 5785 5783 5781 5779 5777 5775 5772 5769 5766 5763 5760 5757 5753 5750 5746 5742 5738 5733 5728 5724 5719 5714 5708 5703 5698
5783 5783 5783 5783 5784 5784 5783 5783 5783 5782 5782 5781 5780 5779 5778 5777 5775 5774 5772 5770 5768 5766 5763 5761 5758 5755 5752 5749 5745 5742 5738 5734 5730 5726 5721 5716 5711 5707 5701 5696 5691 5686 5680
5774 5774 5774 5774 5774 5773 5773 5772 5772 5771 5770 5769 5768 5767 5765 5764 5762 5761 5759 5756 5754 5751 5749 5746 5743 5740 5736 5733 5729 5725 5721 5717 5713 5708 5703 5699 5694 5689 5684 5679 5673 5668 5662
5764 5764 5764 5763 5763 5762 5762 5761 5760 5759 5758 5756 5755 5754 5752 5750 5748 5746 5744 5742 5739 5736 5733 5730 5727 5724 5720 5716 5712 5708 5704 5699 5695 5690 5685 5680 5675 5670 5665 5660 5655 5649 5643
5753 5753 5753 5752 5751 5750 5749 5748 5747 5746 5744 5743 5741 5740 5738 5736 5734 5731 5729 5726 5723 5721 5717 5714 5711 5707 5703 5699 5695 5690 5686 5681 5676 5671 5666 5661 5657 5652 5646 5641 5636 5630 5625
5742 5742 5741 5740 5739 5738 5736 5735 5733 5732 5730 5728 5726 5725 5723 5720 5718 5715 5713 5710 5707 5704 5700 5697 5693 5689 5685 5681 5676 5671 5667 5662 5657 5651 5646 5642 5637 5632 5627 5622 5617 5611 5606